Starlink 5120

operational
NORAD ID: 53982 Int'l Des: 2022-125 Owner: SPXS Country: US Constellation: starlink
LEOCIRCULAR

Starlink 5120について

説明を読み込み中...

リアルタイム位置

3D地球を読み込み中...

次回通過

高度履歴

Altitude vs Time

uPlot chart will show altitude changes over time

軌道要素

1 53982U 22125U 25258.09800050 -.00000006 00000-0 17692-4 0 9999
2 53982 53.2176 282.4226 0001306 91.6725 268.4417 15.08835243162942
Epoch: Sep 15, 2025 • Age: 11 hours

現在のステータス

高度 539.8 km
速度 7.60 km/s
衛星直下点 18.45°N, 96.18°E
打ち上げ日 Oct 5, 2022
運用期間 2.9 years
タイプ internet

技術仕様

分類 Payload
質量 305.00 kg
乾燥質量 290.00 kg
総質量 305.00 kg
長さ 0.20 m
直径 2.80 m
スパン 9.00 m
形状 Box + pan
製造者 SPXS
バスタイプ Starlink
フェーズステータス In Orbit
所有者/国 SPXS/US

大規模コンステレーション

Loading constellations...